Location: Vancouver
(49.2500°N, 123.1330°W)
Time: 05:03:03
(UTC-07:00)

Cosmos 676 Rocket - Visible Passes

Search period start: 31 May 2016 00:00
Search period end: 10 June 2016 00:00
Orbit: 755 x 785 km, 74.0° (Epoch: 30 May)

Date Brightness Start Highest point End Pass type
(mag) Time Alt. Az. Time Alt. Az. Time Alt. Az.
31 May 7.1 01:23:06 10° NW 01:23:56 10° NW 01:24:46 10° NNW visible
31 May 4.5 22:58:20 10° SW 23:03:37 64° WNW 23:08:56 10° NNE visible
01 Jun 6.8 00:43:58 10° WNW 00:46:50 14° NW 00:49:43 10° N visible
01 Jun 4.0 22:21:43 10° SSW 22:27:03 83° ESE 22:32:24 10° NNE visible
02 Jun 6.6 00:05:57 10° W 00:09:51 20° NW 00:13:46 10° N visible
02 Jun 4.2 21:45:25 10° S 21:50:35 53° ESE 21:55:45 10° NNE visible
02 Jun 6.1 23:28:23 10° WSW 23:32:59 29° NW 23:37:35 10° N visible
03 Jun 5.4 22:51:10 10° SW 22:56:12 42° WNW 23:01:15 10° NNE visible
04 Jun 7.3 00:39:14 10° NW 00:39:51 10° NW 00:40:29 10° NNW visible
04 Jun 4.6 22:14:15 10° SW 22:19:32 64° WNW 22:24:50 10° NNE visible
04 Jun 7.0 23:59:56 10° WNW 00:02:46 14° NW 00:05:35 10° N visible
05 Jun 6.8 23:21:54 10° W 23:25:47 20° NW 23:29:39 10° N visible
06 Jun 6.3 22:44:19 10° WSW 22:48:54 28° NW 22:53:28 10° N visible
07 Jun 5.6 22:07:05 10° SW 22:12:07 41° WNW 22:17:09 10° NNE visible
07 Jun 7.6 23:55:29 10° NW 23:55:47 10° NW 23:56:04 10° NNW visible
08 Jun 7.2 23:15:54 10° WNW 23:18:41 14° NW 23:21:27 10° N visible
09 Jun 7.0 22:37:51 10° W 22:41:42 20° NW 22:45:31 10° N visible
